TimeEST,TemperatureF,Dew PointF,Humidity,Sea Level PressureIn,VisibilityMPH,Wind Direction,Wind SpeedMPH,Gust SpeedMPH,PrecipitationIn,Events,Conditions,WindDirDegrees,DateUTC
12:53 AM,64.9,57.9,78,30.18,10.0,East,17.3,-,N/A,,Clear,80,2013-02-10 05:53:00
1:53 AM,64.9,57.9,78,30.18,10.0,East,15.0,-,N/A,,Mostly Cloudy,90,2013-02-10 06:53:00
2:53 AM,64.0,59.0,84,30.16,10.0,East,15.0,-,N/A,,Scattered Clouds,90,2013-02-10 07:53:00
3:53 AM,64.0,59.0,84,30.17,10.0,East,12.7,-,N/A,,Overcast,100,2013-02-10 08:53:00
4:53 AM,64.0,59.0,84,30.17,10.0,East,10.4,-,N/A,,Overcast,100,2013-02-10 09:53:00
5:53 AM,64.0,59.0,84,30.17,10.0,ESE,15.0,-,N/A,,Mostly Cloudy,110,2013-02-10 10:53:00
6:53 AM,64.0,59.0,84,30.19,10.0,ESE,12.7,-,N/A,,Clear,120,2013-02-10 11:53:00
7:53 AM,64.0,59.0,84,30.21,10.0,ESE,11.5,-,N/A,,Overcast,110,2013-02-10 12:53:00
8:53 AM,66.0,59.0,78,30.22,10.0,ESE,13.8,-,N/A,,Mostly Cloudy,120,2013-02-10 13:53:00
10:53 AM,73.0,61.0,66,30.24,10.0,SE,13.8,-,N/A,,Partly Cloudy,130,2013-02-10 15:53:00
11:53 AM,73.9,62.1,66,30.23,10.0,SE,11.5,-,N/A,,Clear,130,2013-02-10 16:53:00
12:53 PM,75.0,62.1,64,30.19,10.0,SE,13.8,-,N/A,,Clear,130,2013-02-10 17:53:00
1:53 PM,75.0,62.1,64,30.16,10.0,SE,10.4,-,N/A,,Partly Cloudy,130,2013-02-10 18:53:00
2:53 PM,75.9,62.1,62,30.14,10.0,SE,8.1,-,N/A,,Partly Cloudy,140,2013-02-10 19:53:00
3:53 PM,75.9,60.1,58,30.13,10.0,SSE,4.6,-,N/A,,Clear,150,2013-02-10 20:53:00
4:53 PM,78.1,60.1,54,30.14,10.0,SW,5.8,-,N/A,,Mostly Cloudy,230,2013-02-10 21:53:00
5:53 PM,75.0,61.0,62,30.14,10.0,SW,6.9,-,N/A,,Scattered Clouds,230,2013-02-10 22:53:00
6:53 PM,72.0,62.1,71,30.16,10.0,WSW,4.6,-,N/A,,Mostly Cloudy,240,2013-02-10 23:53:00
7:53 PM,71.1,63.0,75,30.17,10.0,South,5.8,-,N/A,,Mostly Cloudy,190,2013-02-11 00:53:00
8:53 PM,71.1,61.0,70,30.18,10.0,SSE,13.8,-,N/A,,Mostly Cloudy,160,2013-02-11 01:53:00
9:53 PM,70.0,61.0,73,30.19,10.0,SSE,12.7,-,N/A,,Mostly Cloudy,150,2013-02-11 02:53:00
10:53 PM,69.1,61.0,75,30.18,10.0,SSE,11.5,-,N/A,,Mostly Cloudy,150,2013-02-11 03:53:00
11:53 PM,66.9,61.0,81,30.17,10.0,SSE,12.7,-,N/A,,Mostly Cloudy,150,2013-02-11 04:53:00